AAL247 KSLC-KLAX

Flight info

Callsign AAL247
Flight time 1h 26m
Altitude 34000
Route WINEN LAKRR HAKMN ANJLL4
Aircraft A321/M-SDE3FGHIRWY/LB1

Departure

Time 2026-04-21 01:54
Airport Salt Lake City International Airport (KSLC)

Arrival

Time 2026-04-21 03:21
Airport Los Angeles International Airport (KLAX)
Time Latitude Longitude Altitude Speed Heading
2026-04-21 01:24 40.78654 -111.98039 4231 ft 0 kts 175°
2026-04-21 01:39 40.78674 -111.98042 4231 ft 3 kts 167°
2026-04-21 01:39 40.78694 -111.98050 4231 ft 3 kts 154°
2026-04-21 01:39 40.78712 -111.98064 4231 ft 3 kts 136°
2026-04-21 01:39 40.78725 -111.98084 4231 ft 3 kts 115°
2026-04-21 01:40 40.78731 -111.98108 4231 ft 3 kts 92°
2026-04-21 01:40 40.78731 -111.98122 4231 ft 0 kts 85°
2026-04-21 01:45 40.78731 -111.98120 4231 ft 1 kts 85°
2026-04-21 01:46 40.78732 -111.98105 4231 ft 3 kts 85°
2026-04-21 01:46 40.78735 -111.98057 4231 ft 7 kts 85°
2026-04-21 01:46 40.78740 -111.97983 4231 ft 9 kts 85°
2026-04-21 01:46 40.78745 -111.97894 4231 ft 10 kts 85°
2026-04-21 01:47 40.78752 -111.97794 4231 ft 12 kts 84°
2026-04-21 01:47 40.78779 -111.97694 4231 ft 12 kts 33°
2026-04-21 01:47 40.78866 -111.97695 4231 ft 13 kts 354°
2026-04-21 01:47 40.78961 -111.97706 4230 ft 14 kts 355°
2026-04-21 01:48 40.79060 -111.97717 4231 ft 15 kts 355°
2026-04-21 01:48 40.79168 -111.97729 4231 ft 16 kts 355°
2026-04-21 01:48 40.79276 -111.97742 4231 ft 6 kts 355°
2026-04-21 01:48 40.79324 -111.97747 4231 ft 8 kts 355°
2026-04-21 01:49 40.79383 -111.97754 4231 ft 9 kts 355°
2026-04-21 01:49 40.79453 -111.97762 4230 ft 11 kts 355°
2026-04-21 01:49 40.79534 -111.97772 4230 ft 12 kts 354°
2026-04-21 01:49 40.79625 -111.97783 4230 ft 14 kts 354°
2026-04-21 01:50 40.79723 -111.97795 4230 ft 15 kts 355°
2026-04-21 01:50 40.79828 -111.97807 4230 ft 16 kts 355°
2026-04-21 01:50 40.79941 -111.97820 4231 ft 17 kts 355°
2026-04-21 01:50 40.80059 -111.97834 4231 ft 18 kts 355°
2026-04-21 01:51 40.80179 -111.97846 4231 ft 15 kts 355°
2026-04-21 01:51 40.80283 -111.97842 4231 ft 16 kts 12°
2026-04-21 01:51 40.80387 -111.97819 4231 ft 15 kts 356°
2026-04-21 01:51 40.80483 -111.97830 4231 ft 12 kts 355°
2026-04-21 01:52 40.80573 -111.97840 4231 ft 14 kts 355°
2026-04-21 01:52 40.80641 -111.97728 4230 ft 9 kts 90°
2026-04-21 01:52 40.80613 -111.97684 4230 ft 4 kts 169°
2026-04-21 01:53 40.80606 -111.97683 4230 ft 0 kts 173°
2026-04-21 01:53 40.80568 -111.97677 4231 ft 25 kts 173°
2026-04-21 01:53 40.80166 -111.97631 4233 ft 89 kts 175°
2026-04-21 01:53 40.79348 -111.97535 4230 ft 145 kts 175°
2026-04-21 01:54 40.78203 -111.97400 4235 ft 188 kts 176°
2026-04-21 01:54 40.76906 -111.97254 4919 ft 182 kts 177°
2026-04-21 01:54 40.75661 -111.97085 5674 ft 181 kts 175°
2026-04-21 01:54 40.74374 -111.96866 6182 ft 192 kts 173°
2026-04-21 01:55 40.73021 -111.96592 6701 ft 200 kts 172°
2026-04-21 01:55 40.71574 -111.96391 7020 ft 219 kts 177°
2026-04-21 01:55 40.70004 -111.96292 7148 ft 233 kts 179°
2026-04-21 01:55 40.68338 -111.96225 7261 ft 248 kts 179°
2026-04-21 01:56 40.66545 -111.96165 7376 ft 268 kts 179°
2026-04-21 01:56 40.64630 -111.96094 7638 ft 280 kts 179°
2026-04-21 01:56 40.62669 -111.96015 8122 ft 284 kts 179°
2026-04-21 01:56 40.60683 -111.95923 8635 ft 287 kts 178°
2026-04-21 01:57 40.58684 -111.95823 9131 ft 289 kts 178°
2026-04-21 01:57 40.56669 -111.95721 9615 ft 291 kts 178°
2026-04-21 01:57 40.54638 -111.95620 10131 ft 293 kts 179°
2026-04-21 01:57 40.52549 -111.95518 10297 ft 308 kts 178°
2026-04-21 01:58 40.50357 -111.95410 10443 ft 323 kts 178°
2026-04-21 01:58 40.48058 -111.95297 10571 ft 337 kts 178°
2026-04-21 01:58 40.45680 -111.95181 10857 ft 345 kts 178°
2026-04-21 01:58 40.43269 -111.95039 11290 ft 348 kts 178°
2026-04-21 01:59 40.40842 -111.94869 11787 ft 350 kts 178°
2026-04-21 01:59 40.38403 -111.94687 12286 ft 352 kts 178°
2026-04-21 01:59 40.35955 -111.94506 12777 ft 354 kts 178°
2026-04-21 01:59 40.33515 -111.94329 13236 ft 356 kts 178°
2026-04-21 02:00 40.31033 -111.94156 13682 ft 358 kts 178°
2026-04-21 02:00 40.28532 -111.93983 14107 ft 361 kts 178°
2026-04-21 02:00 40.26017 -111.94002 14560 ft 362 kts 187°
2026-04-21 02:00 40.23508 -111.94401 15023 ft 364 kts 188°
2026-04-21 02:01 40.20982 -111.94805 15481 ft 367 kts 188°
2026-04-21 02:01 40.18434 -111.95208 15933 ft 369 kts 188°
2026-04-21 02:01 40.15879 -111.95612 16381 ft 371 kts 188°
2026-04-21 02:01 40.13305 -111.96017 16803 ft 374 kts 188°
2026-04-21 02:02 40.10714 -111.96412 17234 ft 376 kts 188°
2026-04-21 02:02 40.08102 -111.96794 17671 ft 379 kts 188°
2026-04-21 02:02 40.05476 -111.97171 18107 ft 381 kts 188°
2026-04-21 02:02 40.02858 -111.97545 18525 ft 384 kts 188°
2026-04-21 02:03 40.00195 -111.97930 18941 ft 386 kts 188°
2026-04-21 02:03 39.97514 -111.98321 19329 ft 388 kts 188°
2026-04-21 02:03 39.94826 -111.98710 19712 ft 390 kts 188°
2026-04-21 02:03 39.92112 -111.99105 20078 ft 393 kts 188°
2026-04-21 02:04 39.89387 -111.99506 20454 ft 396 kts 188°
2026-04-21 02:04 39.86644 -111.99912 20831 ft 398 kts 188°
2026-04-21 02:04 39.83884 -112.00317 21191 ft 400 kts 188°
2026-04-21 02:04 39.81113 -112.00717 21546 ft 402 kts 188°
2026-04-21 02:05 39.78323 -112.01120 21890 ft 404 kts 188°
2026-04-21 02:05 39.75521 -112.01527 22211 ft 407 kts 188°
2026-04-21 02:05 39.72701 -112.01937 22549 ft 409 kts 188°
2026-04-21 02:05 39.69861 -112.02346 22862 ft 412 kts 188°
2026-04-21 02:06 39.67007 -112.02755 23180 ft 414 kts 188°
2026-04-21 02:06 39.64140 -112.03167 23496 ft 416 kts 188°
2026-04-21 02:06 39.61252 -112.03585 23799 ft 418 kts 188°
2026-04-21 02:06 39.58353 -112.04007 24106 ft 421 kts 188°
2026-04-21 02:07 39.55436 -112.04430 24408 ft 423 kts 188°
2026-04-21 02:07 39.52503 -112.04858 24715 ft 425 kts 188°
2026-04-21 02:07 39.49555 -112.05287 25021 ft 427 kts 188°
2026-04-21 02:07 39.46597 -112.05714 25324 ft 429 kts 188°
2026-04-21 02:08 39.43664 -112.06132 25626 ft 431 kts 188°
2026-04-21 02:08 39.40679 -112.06557 25927 ft 432 kts 188°
2026-04-21 02:08 39.37682 -112.06981 26215 ft 434 kts 188°
2026-04-21 02:08 39.34675 -112.07409 26493 ft 436 kts 188°
2026-04-21 02:09 39.31650 -112.07842 26778 ft 438 kts 188°
2026-04-21 02:09 39.28620 -112.08275 27049 ft 439 kts 188°
2026-04-21 02:09 39.25577 -112.08709 27318 ft 441 kts 188°
2026-04-21 02:09 39.22520 -112.09143 27589 ft 443 kts 188°
2026-04-21 02:10 39.19454 -112.09569 27840 ft 444 kts 188°
2026-04-21 02:10 39.16378 -112.10027 28079 ft 445 kts 192°
2026-04-21 02:10 39.13373 -112.10968 28314 ft 444 kts 201°
2026-04-21 02:10 39.10534 -112.12519 28540 ft 443 kts 210°
2026-04-21 02:11 39.07847 -112.14481 28768 ft 445 kts 212°
2026-04-21 02:11 39.05159 -112.16456 29010 ft 446 kts 211°
2026-04-21 02:11 39.02452 -112.18432 29232 ft 448 kts 211°
2026-04-21 02:11 38.99736 -112.20411 29436 ft 450 kts 211°
2026-04-21 02:12 38.97010 -112.22393 29647 ft 451 kts 211°
2026-04-21 02:12 38.94270 -112.24381 29838 ft 453 kts 211°
2026-04-21 02:12 38.91529 -112.26373 30041 ft 454 kts 211°
2026-04-21 02:12 38.88776 -112.28371 30218 ft 455 kts 211°
2026-04-21 02:13 38.86016 -112.30369 30430 ft 455 kts 211°
2026-04-21 02:13 38.83258 -112.32364 30665 ft 455 kts 211°
2026-04-21 02:13 38.80501 -112.34359 30889 ft 455 kts 211°
2026-04-21 02:13 38.77740 -112.36356 31095 ft 455 kts 211°
2026-04-21 02:14 38.74981 -112.38353 31297 ft 456 kts 211°
2026-04-21 02:14 38.72220 -112.40352 31501 ft 456 kts 211°
2026-04-21 02:14 38.69493 -112.42321 31688 ft 456 kts 211°
2026-04-21 02:14 38.66728 -112.44316 31885 ft 457 kts 211°
2026-04-21 02:15 38.63955 -112.46311 32088 ft 456 kts 211°
2026-04-21 02:15 38.61183 -112.48298 32281 ft 456 kts 211°
2026-04-21 02:15 38.58415 -112.50281 32474 ft 457 kts 211°
2026-04-21 02:15 38.55642 -112.52272 32667 ft 457 kts 211°
2026-04-21 02:16 38.52873 -112.54264 32862 ft 457 kts 211°
2026-04-21 02:16 38.50105 -112.56250 33056 ft 457 kts 211°
2026-04-21 02:16 38.47334 -112.58234 33238 ft 457 kts 211°
2026-04-21 02:16 38.44561 -112.60220 33427 ft 457 kts 211°
2026-04-21 02:17 38.41785 -112.62204 33611 ft 457 kts 211°
2026-04-21 02:17 38.39011 -112.64183 33794 ft 457 kts 211°
2026-04-21 02:17 38.36235 -112.66161 33979 ft 457 kts 211°
2026-04-21 02:18 38.30699 -112.70103 34089 ft 454 kts 211°
2026-04-21 02:18 38.25190 -112.74030 34099 ft 452 kts 211°
2026-04-21 02:19 38.19728 -112.77915 34099 ft 452 kts 211°
2026-04-21 02:19 38.14227 -112.81815 34100 ft 452 kts 211°
2026-04-21 02:20 38.08742 -112.85697 34092 ft 452 kts 211°
2026-04-21 02:20 38.03252 -112.89575 34103 ft 452 kts 211°
2026-04-21 02:21 37.97785 -112.93432 34109 ft 451 kts 210°
2026-04-21 02:21 37.92277 -112.97306 34107 ft 452 kts 210°
2026-04-21 02:22 37.86771 -113.01177 34109 ft 452 kts 211°
2026-04-21 02:22 37.81295 -113.05025 34113 ft 452 kts 210°
2026-04-21 02:23 37.75783 -113.08914 34116 ft 452 kts 211°
2026-04-21 02:23 37.70359 -113.12899 34118 ft 452 kts 212°
2026-04-21 02:24 37.64930 -113.16930 34120 ft 452 kts 212°
2026-04-21 02:24 37.59499 -113.20916 34120 ft 452 kts 211°
2026-04-21 02:25 37.54078 -113.24868 34116 ft 451 kts 211°
2026-04-21 02:25 37.48636 -113.28826 34108 ft 450 kts 211°
2026-04-21 02:26 37.43216 -113.32766 34097 ft 450 kts 211°
2026-04-21 02:26 37.37773 -113.36704 34080 ft 450 kts 211°
2026-04-21 02:27 37.32369 -113.40622 34070 ft 450 kts 211°
2026-04-21 02:27 37.26944 -113.44548 34026 ft 449 kts 211°
2026-04-21 02:28 37.21529 -113.48461 34023 ft 449 kts 211°
2026-04-21 02:28 37.16089 -113.52379 34010 ft 450 kts 211°
2026-04-21 02:29 37.10681 -113.56257 33981 ft 449 kts 211°
2026-04-21 02:29 37.05265 -113.60154 33973 ft 449 kts 211°
2026-04-21 02:30 36.99851 -113.64053 33972 ft 449 kts 211°
2026-04-21 02:30 36.94430 -113.67936 33975 ft 449 kts 211°
2026-04-21 02:31 36.89920 -113.71154 33973 ft 449 kts 211°
2026-04-21 02:31 36.84502 -113.75017 33972 ft 448 kts 211°
2026-04-21 02:32 36.79077 -113.78878 33972 ft 448 kts 211°
2026-04-21 02:32 36.73650 -113.82751 33972 ft 448 kts 211°
2026-04-21 02:33 36.68241 -113.86603 33972 ft 448 kts 211°
2026-04-21 02:33 36.62826 -113.90441 33979 ft 447 kts 211°
2026-04-21 02:34 36.57420 -113.94263 33987 ft 447 kts 211°
2026-04-21 02:34 36.52013 -113.98080 33986 ft 446 kts 210°
2026-04-21 02:35 36.46650 -114.01858 33987 ft 446 kts 210°
2026-04-21 02:35 36.41261 -114.05659 33987 ft 445 kts 210°
2026-04-21 02:36 36.35884 -114.09447 33985 ft 444 kts 210°
2026-04-21 02:36 36.30509 -114.13222 33984 ft 444 kts 210°
2026-04-21 02:37 36.25132 -114.16987 33980 ft 444 kts 210°
2026-04-21 02:37 36.19759 -114.20750 33980 ft 444 kts 210°
2026-04-21 02:38 36.14384 -114.24505 33965 ft 443 kts 210°
2026-04-21 02:38 36.09110 -114.28446 33950 ft 442 kts 219°
2026-04-21 02:39 36.04791 -114.33811 33953 ft 441 kts 229°
2026-04-21 02:39 36.00714 -114.39473 33949 ft 441 kts 229°
2026-04-21 02:40 35.96625 -114.45125 33955 ft 441 kts 229°
2026-04-21 02:40 35.92566 -114.50736 33942 ft 440 kts 229°
2026-04-21 02:41 35.88489 -114.56364 33952 ft 440 kts 229°
2026-04-21 02:41 35.84408 -114.61986 33952 ft 440 kts 228°
2026-04-21 02:42 35.80334 -114.67594 33946 ft 439 kts 228°
2026-04-21 02:42 35.76253 -114.73197 33945 ft 438 kts 228°
2026-04-21 02:43 35.72181 -114.78784 33945 ft 438 kts 228°
2026-04-21 02:43 35.68106 -114.84352 33949 ft 437 kts 228°
2026-04-21 02:44 35.64072 -114.89868 33951 ft 436 kts 228°
2026-04-21 02:44 35.60012 -114.95419 33948 ft 435 kts 228°
2026-04-21 02:45 35.55957 -115.00943 33954 ft 435 kts 227°
2026-04-21 02:45 35.51909 -115.06445 33951 ft 434 kts 227°
2026-04-21 02:46 35.47835 -115.11909 33948 ft 433 kts 226°
2026-04-21 02:46 35.43695 -115.17287 33950 ft 433 kts 226°
2026-04-21 02:47 35.39550 -115.22649 33949 ft 432 kts 226°
2026-04-21 02:47 35.35459 -115.27973 33937 ft 432 kts 226°
2026-04-21 02:48 35.31341 -115.33334 33939 ft 431 kts 226°
2026-04-21 02:48 35.27229 -115.38674 33946 ft 431 kts 226°
2026-04-21 02:49 35.23116 -115.44008 33941 ft 431 kts 226°
2026-04-21 02:49 35.19010 -115.49336 33949 ft 430 kts 226°
2026-04-21 02:50 35.14899 -115.54655 33947 ft 430 kts 226°
2026-04-21 02:50 35.10779 -115.59950 33956 ft 430 kts 226°
2026-04-21 02:51 35.06650 -115.65231 33965 ft 429 kts 226°
2026-04-21 02:51 35.02524 -115.70499 33970 ft 429 kts 226°
2026-04-21 02:52 34.98395 -115.75763 33969 ft 429 kts 226°
2026-04-21 02:52 34.94277 -115.81020 33973 ft 429 kts 226°
2026-04-21 02:53 34.90154 -115.86264 33979 ft 428 kts 226°
2026-04-21 02:53 34.86031 -115.91492 33982 ft 428 kts 226°
2026-04-21 02:54 34.81907 -115.96711 33985 ft 428 kts 226°
2026-04-21 02:54 34.77788 -116.01923 33989 ft 427 kts 226°
2026-04-21 02:55 34.73686 -116.07139 33992 ft 426 kts 226°
2026-04-21 02:55 34.69636 -116.12311 33995 ft 424 kts 226°
2026-04-21 02:56 34.65567 -116.17495 33997 ft 423 kts 226°
2026-04-21 02:56 34.59436 -116.25264 33992 ft 422 kts 226°
2026-04-21 02:57 34.55458 -116.30295 33552 ft 408 kts 226°
2026-04-21 02:57 34.53505 -116.32767 33119 ft 404 kts 226°
2026-04-21 02:57 34.51572 -116.35216 32645 ft 400 kts 226°
2026-04-21 02:58 34.49653 -116.37644 32156 ft 397 kts 226°
2026-04-21 02:58 34.47745 -116.40055 31671 ft 395 kts 226°
2026-04-21 02:58 34.45852 -116.42446 31191 ft 391 kts 225°
2026-04-21 02:58 34.43977 -116.44814 30688 ft 388 kts 225°
2026-04-21 02:59 34.42176 -116.47234 30196 ft 386 kts 231°
2026-04-21 02:59 34.40739 -116.49969 29713 ft 385 kts 241°
2026-04-21 02:59 34.39551 -116.52861 29196 ft 383 kts 242°
2026-04-21 02:59 34.38373 -116.55740 28700 ft 381 kts 242°
2026-04-21 03:00 34.37199 -116.58607 28202 ft 379 kts 242°
2026-04-21 03:00 34.36029 -116.61456 27710 ft 377 kts 242°
2026-04-21 03:00 34.34861 -116.64279 27236 ft 375 kts 242°
2026-04-21 03:00 34.33695 -116.67090 26756 ft 372 kts 242°
2026-04-21 03:01 34.32548 -116.69884 26273 ft 370 kts 242°
2026-04-21 03:01 34.31420 -116.72674 25782 ft 367 kts 242°
2026-04-21 03:01 34.30309 -116.75444 25289 ft 366 kts 243°
2026-04-21 03:01 34.29206 -116.78206 24828 ft 363 kts 243°
2026-04-21 03:02 34.28113 -116.80944 24357 ft 361 kts 243°
2026-04-21 03:02 34.27020 -116.83664 23902 ft 358 kts 242°
2026-04-21 03:02 34.25934 -116.86356 23437 ft 356 kts 242°
2026-04-21 03:02 34.24855 -116.89036 22963 ft 353 kts 242°
2026-04-21 03:03 34.23797 -116.91658 22500 ft 350 kts 242°
2026-04-21 03:03 34.22730 -116.94295 22024 ft 348 kts 242°
2026-04-21 03:03 34.21667 -116.96915 21555 ft 346 kts 242°
2026-04-21 03:03 34.20751 -116.99589 21103 ft 344 kts 250°
2026-04-21 03:04 34.20019 -117.02330 20648 ft 341 kts 250°
2026-04-21 03:04 34.19293 -117.05047 20189 ft 339 kts 250°
2026-04-21 03:04 34.18564 -117.07750 19752 ft 337 kts 250°
2026-04-21 03:04 34.17837 -117.10432 19312 ft 335 kts 249°
2026-04-21 03:05 34.17116 -117.13094 18879 ft 332 kts 250°
2026-04-21 03:05 34.16415 -117.15736 18423 ft 330 kts 250°
2026-04-21 03:05 34.15706 -117.18368 17969 ft 328 kts 250°
2026-04-21 03:05 34.14991 -117.20969 17535 ft 326 kts 249°
2026-04-21 03:06 34.14272 -117.23552 17108 ft 323 kts 249°
2026-04-21 03:06 34.13559 -117.26108 16652 ft 321 kts 249°
2026-04-21 03:06 34.12847 -117.28654 16190 ft 319 kts 249°
2026-04-21 03:06 34.12152 -117.31145 15736 ft 317 kts 249°
2026-04-21 03:07 34.11453 -117.33664 15279 ft 315 kts 249°
2026-04-21 03:07 34.10759 -117.36167 14832 ft 313 kts 249°
2026-04-21 03:07 34.10082 -117.38657 14389 ft 311 kts 250°
2026-04-21 03:07 34.09448 -117.41145 14026 ft 308 kts 251°
2026-04-21 03:08 34.08840 -117.43614 13641 ft 307 kts 251°
2026-04-21 03:08 34.08235 -117.46084 13181 ft 306 kts 251°
2026-04-21 03:08 34.07630 -117.48545 12731 ft 305 kts 251°
2026-04-21 03:08 34.06923 -117.50941 12303 ft 302 kts 244°
2026-04-21 03:09 34.06089 -117.53261 11964 ft 301 kts 244°
2026-04-21 03:09 34.05256 -117.55579 11718 ft 301 kts 244°
2026-04-21 03:09 34.04421 -117.57895 11460 ft 301 kts 245°
2026-04-21 03:09 34.03586 -117.60206 11218 ft 300 kts 245°
2026-04-21 03:10 34.02753 -117.62511 10968 ft 300 kts 245°
2026-04-21 03:10 34.01924 -117.64810 10717 ft 297 kts 245°
2026-04-21 03:10 34.01114 -117.67071 10465 ft 290 kts 246°
2026-04-21 03:10 34.00571 -117.69402 10213 ft 290 kts 260°
2026-04-21 03:11 34.00340 -117.71816 9963 ft 290 kts 262°
2026-04-21 03:11 34.00111 -117.74224 9713 ft 289 kts 262°
2026-04-21 03:11 33.99880 -117.76626 9460 ft 288 kts 262°
2026-04-21 03:11 33.99643 -117.79026 9209 ft 288 kts 262°
2026-04-21 03:12 33.99405 -117.81421 8963 ft 287 kts 262°
2026-04-21 03:12 33.99174 -117.83777 8714 ft 287 kts 263°
2026-04-21 03:12 33.98942 -117.86158 8462 ft 285 kts 263°
2026-04-21 03:12 33.98712 -117.88532 8212 ft 284 kts 263°
2026-04-21 03:13 33.98484 -117.90889 7961 ft 283 kts 263°
2026-04-21 03:13 33.98252 -117.93242 7710 ft 282 kts 262°
2026-04-21 03:13 33.98023 -117.95576 7461 ft 277 kts 263°
2026-04-21 03:13 33.97799 -117.97854 7210 ft 271 kts 262°
2026-04-21 03:14 33.97579 -118.00079 6959 ft 265 kts 262°
2026-04-21 03:14 33.97362 -118.02267 6697 ft 261 kts 262°
2026-04-21 03:14 33.97147 -118.04410 6389 ft 254 kts 263°
2026-04-21 03:14 33.96941 -118.06485 6076 ft 247 kts 263°
2026-04-21 03:15 33.96739 -118.08505 5468 ft 242 kts 263°
2026-04-21 03:15 33.96538 -118.10508 4790 ft 240 kts 263°
2026-04-21 03:15 33.96342 -118.12470 4203 ft 235 kts 263°
2026-04-21 03:15 33.96149 -118.14358 3975 ft 225 kts 263°
2026-04-21 03:16 33.95963 -118.16206 3685 ft 221 kts 263°
2026-04-21 03:16 33.95779 -118.18037 3392 ft 218 kts 263°
2026-04-21 03:16 33.95599 -118.19836 3113 ft 213 kts 263°
2026-04-21 03:16 33.95426 -118.21554 2833 ft 199 kts 263°
2026-04-21 03:17 33.95266 -118.23146 2583 ft 183 kts 263°
2026-04-21 03:17 33.95120 -118.24594 2348 ft 166 kts 263°
2026-04-21 03:17 33.94986 -118.25920 2131 ft 155 kts 263°
2026-04-21 03:17 33.94858 -118.27189 1929 ft 150 kts 264°
2026-04-21 03:18 33.94778 -118.27985 1803 ft 149 kts 264°
2026-04-21 03:18 33.94614 -118.29609 1543 ft 146 kts 264°
2026-04-21 03:18 33.94492 -118.30819 1349 ft 145 kts 264°
2026-04-21 03:18 33.94370 -118.32022 1159 ft 145 kts 264°
2026-04-21 03:19 33.94248 -118.33222 967 ft 144 kts 264°
2026-04-21 03:19 33.94126 -118.34418 778 ft 144 kts 264°
2026-04-21 03:19 33.94044 -118.35209 651 ft 144 kts 264°
2026-04-21 03:19 33.93924 -118.36403 474 ft 142 kts 263°
2026-04-21 03:20 33.93805 -118.37577 256 ft 141 kts 263°
2026-04-21 03:20 33.93687 -118.38744 111 ft 138 kts 263°
2026-04-21 03:20 33.93598 -118.39624 110 ft 72 kts 263°
2026-04-21 03:20 33.93548 -118.40132 112 ft 51 kts 263°
2026-04-21 03:21 33.93539 -118.40478 113 ft 31 kts 287°
2026-04-21 03:21 33.93597 -118.40652 106 ft 17 kts 286°
2026-04-21 03:21 33.93593 -118.40764 105 ft 13 kts 262°
2026-04-21 03:21 33.93596 -118.40840 106 ft 7 kts 290°
2026-04-21 03:22 33.93628 -118.40883 107 ft 6 kts 330°
2026-04-21 03:22 33.93673 -118.40896 106 ft 9 kts 352°
2026-04-21 03:22 33.93739 -118.40906 106 ft 9 kts 353°
2026-04-21 03:22 33.93788 -118.40885 102 ft 9 kts 79°
2026-04-21 03:23 33.93794 -118.40815 102 ft 9 kts 83°
2026-04-21 03:23 33.93815 -118.40746 101 ft 10 kts 39°
2026-04-21 03:23 33.93881 -118.40771 97 ft 9 kts 317°
2026-04-21 03:23 33.93924 -118.40821 96 ft 8 kts 320°
2026-04-21 03:24 33.93947 -118.40880 96 ft 6 kts 285°
2026-04-21 03:24 33.93961 -118.40921 96 ft 4 kts 290°
2026-04-21 03:24 33.93965 -118.40934 96 ft 0 kts 289°